www.pogodaiklimat.ru

Погода и климат >> Архив погоды >> Мексика >> La Paz


ПОГОДА в La Paz

  • Прогноз погоды в La Paz
  • Монитор погоды в La Paz
  • Климат города

АРХИВ ПОГОДЫ в La Paz

Время (UTC), дата Ветер
(напр.,м/с)
 
Видим.   Явления Облачность Т
(С)
Тd
(С)
f
(%)
Тe
(С)
Тes
(С)
Комфортность P
(гПа)
Po
(гПа)
Тmin
(С)
Tmax
(С)
R
(мм)
R24
(мм)
S
(см)
18 11.10 З 1 30 км 3/0 2000 м
[Ac trans]
+29.0 +21.9 66 +37 +50 очень
душно
1011.6 1009.6 +19.0 +29.4
21 11.10 ЮЗ 2 30 км 8/0 2000 м
[Ac trans]
+33.5 +21.4 49 +41 +48 опасность
перегрева
1009.9 1007.8
00 12.10 Ю 3 25 км 8/0 2000 м
[Ac trans]
+32.2 +22.1 55 +41 +42 опасность
перегрева
1010.3 1008.2 +19.0 +34.9
03 12.10 ЮЗ 2 2000 м 5/0 2000 м
[Ac trans Cs]
+27.3 +22.7 76 +36 +36 очень
душно
1009.9 1007.9
06 12.10 Ю 4 2000 м ясно +26.1 +22.2 79 +34 +34 очень
душно
1010.4 1008.4 +34.9
09 12.10 Ю 5 2000 м гроза без осадков 8/0 2000 м
[]
+27.0 +21.1 70 +34 +34 очень
душно
1009.8 1007.7
12 12.10 Ю 4 2000 м в посл. час дождь 5/5 600 м
[Sc diur, vesp]
+25.0 +24.3 96 +35 +35 очень
душно
1009.7 1007.6 0.9
15 12.10 Ю 3 20 км 3/3 1200 м
[Sc diur, vesp]
+25.8 +24.6 93 +36 +37 очень
душно
1011.4 1009.3
18 12.10 З 4 30 км 5/5 1200 м
[Sc diur, vesp]
+29.0 +23.7 73 +40 +44 очень
душно
1011.7 1009.6 +22.8 +29.5
21 12.10 ЮЗ 3 30 км 6/6 1200 м
[Sc diur, vesp]
+30.5 +23.5 66 +41 +45 опасность
перегрева
1010.8 1008.7
00 13.10 З 3 30 км 3/3 1000 м
[Sc diur, vesp]
+29.4 +22.8 68 +39 +40 очень
душно
1010.8 1008.7 +22.8 +31.5
03 13.10 Ю 1 2000 м ясно +25.4 +22.8 86 +34 +34 очень
душно
1011.8 1009.8
06 13.10 Ю 2 2000 м ясно +23.6 +21.9 90 +30 +30 очень
душно
1012.8 1010.8 +31.5
09 13.10 Ю 1 2000 м 9/0 2000 м
[]
+22.2 +21.2 94 +29 +29 очень
душно
1012.2 1010.2
12 13.10 Ю 1 2000 м ясно +21.8 +20.9 95 +28 +28 душно 1011.6 1009.5 +21.4 +31.5
15 13.10 ЮВ 1 25 км 3/0 2000 м
[Ac trans]
+22.8 +20.8 88 +30 +32 очень
душно
1013.2 1011.1
18 13.10 З 1 30 км 3/3 1200 м
[Sc diur, vesp]
+27.5 +21.4 69 +35 +46 очень
душно
1013.3 1011.2 +20.8 +28.0
21 13.10 З 2 30 км 3/3 1200 м
[Sc diur, vesp]
+29.5 +21.8 63 +38 +46 очень
душно
1010.7 1008.6
00 14.10 С 2 30 км 5/5 1000 м
[Sc diur, vesp]
+29.3 +21.1 61 +37 +37 очень
душно
1010.3 1008.2 +20.8 +30.2
03 14.10 Ю 3 2000 м 6/6 1200 м
[Sc diur, vesp]
+25.0 +20.1 74 +31 +31 очень
душно
1011.4 1009.3
06 14.10 Ю 2 2000 м ясно +23.3 +19.4 79 +30 +30 очень
душно
1011.7 1009.6 +30.2
09 14.10 Ю 2 2000 м ясно +20.4 +17.2 82 +24 +24 комфорт 1011.4 1009.3
12 14.10 Ю 3 2000 м 6/6 1200 м
[Sc diur, vesp]
+20.0 +16.1 78 +23 +23 комфорт 1011.8 1009.7 +19.4 +30.2
15 14.10 Ю 1 25 км 3/3 1200 м
[Sc diur, vesp]
+21.6 +17.4 77 +26 +27 душно 1013.6 1011.5
18 14.10 З 2 30 км 1/1 1200 м
[Sc diur, vesp]
+26.0 +17.8 61 +30 +42 душно 1013.3 1011.2 +18.8 +26.5
21 14.10 СЗ 2 30 км 4/1 1200 м
[Sc diur, vesp Ac trans]
+27.6 +18.2 57 +32 +41 очень
душно
1010.7 1008.6
00 15.10 С 2 30 км 1/1 1000 м
[Sc diur, vesp]
+28.0 +18.7 57 +33 +34 очень
душно
1010.3 1008.2 +18.8 +29.0
03 15.10 Ю 2 2000 м 8/5 1200 м
[Sc diur, vesp Ac trans]
+25.0 +19.9 73 +31 +31 очень
душно
1011.1 1009.0
06 15.10 Ю 2 2000 м 3/0 2000 м
[Ac trans]
+23.0 +18.9 78 +29 +29 очень
душно
1011.3 1009.2 +18.8 +29.0
09 15.10 ЮЗ 1 2000 м 5/1 1200 м
[Sc diur, vesp Ac trans]
+21.7 +17.8 78 +26 +26 душно 1011.2 1009.2
12 15.10 Ю 2 2000 м 1/1 1200 м
[Sc diur, vesp]
+19.6 +16.5 82 +22 +22 комфорт 1011.2 1009.1 +19.2 +29.0
15 15.10 Ю 3 25 км 1/1 1200 м
[Sc diur, vesp]
+21.2 +16.9 76 +25 +26 комфорт 1013.0 1010.9
18 15.10 Ю 1 30 км 1/1 1200 м
[Sc diur, vesp]
+28.2 +18.6 56 +33 +47 очень
душно
1012.7 1010.6 +19.0 +28.7
21 15.10 З 1 30 км 1/1 1200 м
[Sc diur, vesp]
+30.4 +19.7 53 +37 +49 очень
душно
1010.3 1008.2
00 16.10 З 2 30 км 6/5 1000 м
[Sc Ci fib]
+28.9 +19.9 58 +35 +36 очень
душно
1009.6 1007.5 +19.0 +30.8
03 16.10 Ю 3 2000 м 1/0
[Cs]
+24.7 +18.7 69 +29 +29 душно 1011.0 1008.9
06 16.10 ЮВ 1 2000 м ясно +22.6 +18.4 77 +28 +28 душно 1011.4 1009.4 +30.8
09 16.10 З 2 2000 м 1/0
[Ac trans]
+19.8 +17.4 86 +23 +23 комфорт 1011.6 1009.5
12 16.10 Ю 1 2000 м ясно +19.2 +16.9 87 +22 +22 комфорт 1011.5 1009.4 +18.8 +30.8
15 16.10 Ю 1 25 км 3/3 1200 м
[Sc diur, vesp]
+20.5 +17.6 83 +25 +27 комфорт 1012.2 1010.1
18 16.10 З 2 30 км 6/5 1200 м
[Sc diur, vesp Ci fib]
+28.2 +20.5 63 +35 +41 очень
душно
1012.4 1010.3 +18.3 +28.6
21 16.10 С 4 30 км 4/4 1200 м
[Sc diur, vesp]
+24.5 +21.8 85 +31 +36 очень
душно
1011.0 1008.9
00 17.10 С 4 30 км 3/1 1000 м
[Sc diur, vesp Ac trans]
+28.6 +19.5 58 +34 +35 очень
душно
1010.4 1008.3 +18.3 +29.8
03 17.10 С 3 2000 м ясно +25.7 +18.8 66 +31 +31 очень
душно
1011.5 1009.5
06 17.10 Ю 2 2000 м ясно +23.4 +19.3 78 +30 +30 очень
душно
1012.2 1010.1 +29.8
09 17.10 Ю 1 2000 м 1/1 1200 м
[Sc diur, vesp]
+19.7 +17.1 85 +23 +23 комфорт 1011.9 1009.8
12 17.10 Ю 1 2000 м ясно +19.4 +16.9 85 +22 +22 комфорт 1011.7 1009.6 +19.0 +29.8
15 17.10 Ю 2 25 км 3/3 1200 м
[Sc diur, vesp]
+21.3 +17.8 80 +25 +27 комфорт 1013.4 1011.3
18 17.10 С 2 30 км 3/3 1200 м
[Sc diur, vesp]
+28.0 +20.0 62 +34 +43 очень
душно
1013.3 1011.2 +18.8 +28.2
21 17.10 СЗ 2 30 км 1/1 1200 м
[Sc diur, vesp]
+29.4 +17.6 49 +34 +44 очень
душно
1011.4 1009.3
00 18.10 С 3 30 км 3/0 2000 м
[Ac trans Ci fib]
+29.3 +19.2 55 +35 +36 очень
душно
1010.6 1008.5 +18.8 +29.9
03 18.10 С 3 2000 м ясно +25.9 +18.9 65 +31 +31 очень
душно
1012.2 1010.1
06 18.10 Ю 1 2000 м ясно +23.2 +19.6 80 +30 +30 очень
душно
1012.8 1010.8 +18.8 +29.9
09 18.10 Ю 1 2000 м ясно +20.6 +17.9 85 +25 +25 комфорт 1012.3 1010.3
12 18.10 Ю 1 2000 м ясно +19.2 +16.7 85 +22 +22 комфорт 1012.2 1010.1 +19.0 +29.9

 

Местоположение метеостанции La Paz (Мексика): широта 24.17 долгота -110.30 высота над уровнем моря 18 м.

В архиве по умолчанию представлена погода в La Paz за последнюю неделю. Архивные данные за месяц целиком и за предыдущие месяцы, начиная с января 2011 года, Вы можете получить, выбрав интересующий диапазон дат из раскрывающегося списка и нажав кнопку "Ввод!".


*Определитесь, кто Вы:
робот инопланетянин человек

Внимание! Время в таблицах - всемирное. Для получения местного времени необходимо прибавить поправку, которая в La Paz равна -6 ч.

Смотрите также архив погоды в соседних городах и на ближайших метеорологических станциях:

Погода в Ciudad Constitucion (Мексика) (166 км)
Погода в Loreto (Мексика) (229 км)
Погода в Culiacan (Мексика) (302 км)
Погода в Choix (Мексика) (354 км)
Погода в Ciudad Obregon (Мексика) (361 км)
Погода в Santa Rosalia (Мексика) (397 км)
Погода в Mazatlan (Мексика) (412 км)
Погода в Guaymas (Мексика) (421 км)
Погода в Empalme (Мексика) (422 км)
Погода в Tepehuanes (Мексика) (481 км)

Пояснения к столбцам:

Ветер - указаны скорость ветра в м/с - средняя за 10 мин, порывы в срок и между сроками (в фигурных скобках) и направление, откуда дует ветер: С - северный, СВ - северо-восточный, В - восточный, ЮВ - юго-восточный, Ю - южный, ЮЗ - юго-западный, З - западный, СЗ - северо-западный.
Видимость - горизонтальная дальность видимости в метрах или километрах. При видимости от 1 до 10 км при отсутствии осадков обычно наблюдается дымка, при ухудшении видимости до 1 км и менее - туман. В сухую погоду видимость может ухудшаться дымом, пылью или мглою.
Явления - указаны атмосферные явления, наблюдавшиеся в срок или в последний час перед сроком; фигурными скобками обозначены явления, наблюдавшиеся между сроками (за 1-3 часа до срока); квадратными скобками обозначены град или гололедные отложения с указанием их диаметра в мм.
Облачность - указаны через наклонную черту общая и нижняя облачность в баллах и высота нижней границы облаков в метрах; квадратными скобками обозначены формы облаков: Ci - перистые, Cs - перисто-слоистые, Cc - перисто-кучевые, Ac - высококучевые, As - высокослоистые, Sc - слоисто-кучевые, Ns - слоисто-дождевые, Cu - кучевые, Cb - кучево-дождевые. Подробнее классификацию облаков см. в Атласе облаков (PDF).
T - Температура воздуха - температура, измеренная на высоте 2 м над землей.
Td - Температура точки росы - температура, при понижении до которой содержащийся в воздухе водяной пар достигнет насыщения.
f - Относительная влажность воздуха - влажноcть воздуха, измеренная на высоте 2 м над землей.
Te - Эффективная температура - температура, которую ощущает одетый по сезону человек в тени. Характеристика душности погоды. При расчете учитывается влияние влажности воздуха и скорости ветра на теплоощущения человека.
Tes - Эффективная температура на солнце - температура, которую ощущает человек, с поправкой на солнечный нагрев. Характеристика знойности погоды. Зависит от высоты солнца над горизонтом, облачности и скорости ветра. Ночью, в пасмурную погоду, а также при ветре 12 м/с и более поправка равна нулю.
P - Атмосферное давление - приведенное к уровню моря атмосферное давление.
Po - Атмосферное давление - измеренное на уровне метеостанции атмосферное давление.
Tmin - Минимальная температура - минимум температуры воздуха на высоте 2 м над землей.
Tmax - Максимальная температура - максимум температуры воздуха на высоте 2 м над землей.
R - Количество осадков - Количество выпавших осадков за период времени, мм. При наведении курсора мыши на число - период времени, за который выпало указанное количество осадков.
R24 - Количество осадков - Количество выпавших осадков за 24 часа, мм.
S - Снежный покров - Высота снежного покрова, см. При наведении курсора мыши на число - состояние снежного покрова и степень покрытия местности в баллах.